Temp
20 19 19 18 16 14 15 15 15 15 15 15 15 15 14 15 15 15 15 14 13 13 12 13 14 14 14 13 13 13 12 12
20 19 18 16 15 14 14 15 15 15 15 15 15 15 14 14 15 15 14 14 13 13 12 13 13 13 13 13 13 13 12 12
19 19 18 15 15 14 14 14 14 14 14 14 15 15 15 15 15 14 14 13 13 13 12 12 13 13 13 12 12 12 12 12
19 18 18 17 15 15 14 13 13 14 14 14 14 14 14 13 14 13 12 12 12 12 11 11 13 12 12 12 12 12 12 13
18 19 18 16 16 14 14 13 14 13 13 14 13 12 12 13 13 12 13 12 11 11 11 11 12 12 12 11 11 11 12 12
18 18 18 17 14 14 14 13 13 13 13 13 13 13 13 13 13 12 11 11 11 11 11 11 12 11 11 11 11 12 12 12
18 18 18 17 15 14 14 13 13 12 13 12 12 13 13 13 12 11 12 11 12 12 11 11 11 11 10 10 11 11 11 11
18 18 18 17 17 16 14 13 12 12 12 12 12 12 12 12 12 11 12 12 11 11 12 11 11 10 10 10 10 10 10 10
15 18 18 17 17 16 14 13 13 12 12 12 12 12 12 12 12 12 12 11 11 11 11 11 11 11 10 10 10 10 10 10
15 17 18 17 17 17 15 13 12 12 12 12 12 12 12 11 11 11 11 11 11 11 11 10 10 10 10 10 10 10 10 10
15 16 18 17 16 16 15 13 12 12 12 12 12 12 11 11 11 11 11 11 11 11 11 10 10 10 11 10 10 10 10 10
15 14 17 17 16 16 15 13 12 12 11 11 11 11 11 11 10 11 11 10 10 11 10 11 10 10 11 10 10 10 10 9
16 14 17 17 17 16 15 12 12 11 11 11 11 11 11 10 10 10 10 10 10 10 10 10 10 10 10 9 9 9 9 9
16 15 17 17 17 16 15 14 12 11 11 11 11 11 11 10 10 10 10 10 10 10 9 10 10 10 9 9 8 8 9 8
16 15 17 17 16 15 15 13 11 10 10 11 11 11 10 11 10 10 10 10 10 10 9 9 10 10 10 11 9 10 10 9
15 14 16 16 16 16 15 13 12 10 11 10 10 10 10 10 10 10 10 10 10 10 10 10 10 9 10 11 11 12 11 9
14 12 14 16 17 15 15 12 12 9 11 10 10 10 11 10 10 10 10 10 10 11 10 10 10 10 10 9 10 10 11 12
13 12 13 16 16 15 14 11 11 10 10 10 10 10 10 10 10 10 11 11 11 10 11 10 11 10 11 10 10 10 10 11
12 12 13 15 15 15 15 13 10 10 9 10 10 10 10 10 10 10 10 10 10 10 10 10 10 10 10 10 10 10 11 11
12 12 12 14 15 15 15 11 13 10 10 10 10 10 10 11 10 10 10 10 10 10 9 9 9 9 8 9 9 10 10 10
Height
1491 1492 1493 1494 1494 1497 1500 1502 1504 1507 1510 1512 1515 1518 1520 1522 1525 1528 1532 1532 1531 1537 1538 1542 1544 1547 1550 1553 1556 1560 1563 1564
1489 1490 1491 1492 1494 1496 1498 1502 1504 1505 1508 1511 1516 1518 1520 1523 1523 1524 1526 1530 1532 1534 1537 1542 1545 1546 1550 1554 1557 1560 1564 1566
1487 1489 1490 1491 1493 1494 1497 1501 1503 1504 1506 1509 1513 1518 1520 1522 1523 1523 1525 1529 1531 1534 1534 1539 1545 1546 1550 1554 1558 1562 1563 1566
1484 1487 1488 1489 1491 1494 1495 1498 1501 1503 1504 1507 1511 1514 1517 1520 1520 1523 1525 1528 1530 1533 1532 1538 1545 1545 1550 1555 1559 1561 1564 1567
1483 1484 1485 1487 1488 1491 1494 1494 1497 1500 1502 1505 1507 1510 1513 1516 1518 1520 1522 1525 1528 1531 1532 1540 1542 1544 1549 1554 1557 1561 1564 1566
1480 1481 1482 1483 1485 1487 1490 1492 1494 1496 1499 1502 1504 1506 1509 1512 1514 1517 1518 1521 1525 1528 1532 1536 1541 1545 1549 1554 1557 1561 1564 1566
1474 1477 1478 1480 1482 1483 1485 1488 1490 1493 1496 1497 1500 1502 1505 1507 1511 1514 1515 1518 1522 1526 1531 1534 1539 1544 1548 1552 1556 1560 1562 1565
1468 1471 1474 1476 1478 1480 1482 1484 1486 1489 1491 1493 1495 1499 1500 1503 1506 1509 1511 1515 1519 1524 1527 1533 1538 1543 1547 1552 1555 1558 1560 1564
1463 1467 1470 1471 1473 1476 1478 1481 1483 1485 1487 1490 1491 1493 1495 1497 1501 1504 1506 1512 1517 1521 1527 1532 1538 1543 1548 1551 1555 1558 1560 1563
1458 1460 1464 1467 1469 1471 1474 1477 1479 1481 1483 1485 1487 1488 1490 1492 1495 1499 1502 1509 1514 1519 1524 1530 1536 1541 1546 1551 1553 1558 1560 1563
1452 1454 1458 1461 1464 1466 1470 1472 1474 1477 1478 1480 1482 1484 1485 1488 1492 1496 1499 1505 1511 1516 1523 1528 1534 1540 1545 1550 1552 1557 1559 1562
1446 1448 1450 1455 1459 1462 1465 1468 1470 1472 1473 1475 1477 1478 1480 1483 1485 1488 1494 1500 1505 1512 1518 1526 1531 1537 1543 1548 1550 1556 1559 1558
1439 1442 1442 1448 1451 1455 1458 1461 1464 1467 1468 1471 1472 1473 1473 1473 1479 1484 1488 1494 1499 1508 1516 1522 1529 1534 1540 1544 1549 1553 1554 1557
1432 1434 1434 1440 1445 1450 1453 1457 1459 1462 1464 1466 1467 1468 1468 1469 1471 1474 1481 1489 1495 1504 1513 1519 1524 1529 1535 1542 1546 1552 1551 1554
1425 1428 1426 1433 1440 1445 1449 1452 1455 1457 1458 1461 1462 1463 1463 1463 1464 1469 1476 1482 1491 1501 1509 1515 1520 1528 1533 1537 1543 1545 1548 1551
1418 1421 1420 1427 1433 1439 1443 1446 1449 1451 1453 1458 1459 1461 1463 1465 1466 1468 1473 1481 1490 1498 1505 1512 1518 1524 1530 1535 1538 1540 1542 1548
1412 1413 1415 1420 1427 1434 1439 1445 1448 1448 1450 1454 1457 1459 1463 1464 1468 1470 1475 1483 1489 1496 1503 1509 1514 1520 1524 1529 1533 1536 1539 1543
1403 1404 1410 1415 1422 1428 1434 1439 1443 1446 1445 1451 1454 1457 1460 1466 1469 1472 1477 1482 1488 1494 1500 1505 1510 1516 1521 1526 1530 1530 1534 1538
1395 1396 1403 1410 1416 1422 1429 1434 1438 1444 1442 1447 1450 1453 1457 1461 1466 1470 1474 1480 1486 1491 1497 1502 1507 1512 1517 1521 1525 1528 1532 1534
1390 1392 1398 1405 1411 1417 1424 1430 1434 1441 1440 1444 1448 1451 1454 1458 1462 1467 1473 1477 1483 1486 1491 1498 1502 1506 1511 1516 1519 1522 1527 1530
Wind_Speed
12 9 8 10 11 15 16 19 18 19 21 24 27 27 28 27 23 14 15 19 15 16 17 19 22 21 19 17 17 17 15 14
14 11 9 10 12 16 17 17 19 20 21 23 24 26 28 27 24 15 21 20 20 16 19 21 23 23 20 18 18 18 13 13
16 13 11 12 14 16 17 18 19 21 21 23 25 24 25 26 29 21 25 16 19 24 22 24 24 23 21 19 16 14 13 10
18 15 13 14 18 18 18 19 21 22 23 26 26 25 26 24 25 23 19 21 22 23 23 23 24 25 22 19 16 12 11 10
21 18 15 15 18 19 22 23 24 26 26 27 26 24 25 29 25 23 26 23 23 25 26 23 26 25 24 20 13 13 10 11
24 20 18 16 15 21 22 25 26 27 30 30 30 31 29 29 28 19 20 24 24 25 27 25 26 24 21 17 14 12 12 11
27 23 20 19 19 21 23 24 26 26 31 31 32 33 32 32 25 20 25 28 27 26 28 29 28 21 19 17 15 13 14 14
27 27 22 22 21 23 23 23 24 26 30 31 33 32 31 30 28 26 29 29 27 30 32 28 25 19 18 17 13 12 14 14
26 29 25 24 22 22 24 24 23 22 26 27 32 35 33 31 31 28 29 30 28 28 32 26 22 19 18 17 14 13 15 16
25 30 29 26 25 22 23 23 27 25 25 24 25 28 29 26 28 31 32 32 32 32 34 26 23 20 19 17 14 13 15 15
26 30 32 29 27 24 22 23 26 25 25 27 27 28 29 28 30 32 33 36 34 36 32 33 24 22 20 18 15 14 15 14
25 28 33 32 29 26 24 25 26 27 25 24 25 26 29 31 31 32 38 39 41 36 39 36 27 23 21 18 15 15 15 14
26 29 34 35 33 30 28 27 26 27 25 23 23 23 28 29 30 35 38 38 41 38 39 33 29 26 22 20 16 15 14 12
26 32 37 38 35 32 29 26 27 24 24 23 24 23 20 24 35 44 44 38 39 45 38 32 33 29 27 22 14 13 14 15
27 32 38 38 34 32 28 21 22 21 22 21 23 17 18 11 27 39 42 45 44 46 40 34 34 30 24 22 14 12 17 16
25 33 38 38 37 32 29 23 20 20 20 20 21 14 15 12 25 44 43 40 44 43 43 36 35 29 24 23 17 15 21 11
23 33 35 38 37 32 27 19 15 15 16 20 21 17 19 16 20 21 24 31 36 37 41 37 34 32 32 28 22 16 14 12
26 34 35 38 37 34 27 21 16 17 20 20 22 21 22 23 25 27 27 30 32 34 37 41 37 34 31 31 25 22 21 18
28 34 36 39 38 34 29 22 19 17 19 22 24 25 22 24 32 34 30 29 30 29 30 37 37 33 35 33 27 25 21 23
30 34 35 38 38 34 29 21 20 17 18 20 21 23 21 22 29 33 37 37 35 34 34 34 39 41 38 36 31 30 27 20
Wind_Direction
232 240 240 234 207 210 208 208 203 202 205 210 207 204 199 198 193 198 228 230 205 208 205 206 192 188 187 185 179 159 155 149
229 234 232 218 217 214 211 213 206 204 208 207 208 206 205 196 190 249 246 225 240 230 209 209 201 188 189 185 178 171 162 156
226 231 229 209 218 225 214 216 214 207 210 212 211 212 215 206 218 260 209 235 234 217 208 208 200 188 186 183 175 166 161 167
224 228 230 222 215 217 216 221 213 213 210 210 211 210 204 203 227 222 231 240 235 216 203 199 195 184 183 180 163 172 173 185
226 228 228 221 224 219 220 217 222 212 215 214 204 202 206 213 224 234 246 232 215 214 194 199 191 181 182 172 177 178 182 173
227 226 227 226 219 221 222 223 224 221 215 216 215 217 220 223 227 241 215 197 204 199 190 189 189 176 174 175 178 174 183 172
227 224 225 223 218 224 223 221 222 224 222 220 222 223 226 235 234 217 208 202 204 208 191 190 186 175 173 178 174 176 176 173
227 224 225 226 229 233 229 223 225 225 226 227 224 227 230 234 236 218 211 209 207 207 189 191 184 173 175 176 179 182 174 169
225 225 225 226 228 232 230 226 223 228 232 236 235 236 240 238 227 218 212 207 201 211 196 191 177 172 176 177 175 176 170 165
219 227 225 226 225 232 229 228 225 229 232 237 241 240 239 224 218 212 209 204 200 188 188 178 176 175 176 179 168 174 171 169
217 224 227 226 224 228 228 228 224 227 233 239 241 242 232 223 214 212 209 200 194 175 201 194 178 178 176 177 168 174 174 176
217 220 227 224 224 224 226 226 223 229 233 239 245 242 232 231 225 218 218 211 201 195 195 198 184 178 176 176 168 180 183 181
218 212 224 220 221 218 224 226 225 230 234 236 241 245 243 231 222 213 215 214 200 192 191 185 181 174 172 167 173 181 184 188
220 212 223 219 220 220 226 227 231 233 234 235 238 240 240 241 231 221 214 216 198 187 190 183 184 176 174 174 164 183 192 197
222 210 221 215 214 215 221 222 227 227 226 226 230 240 242 225 217 205 207 213 192 189 191 186 185 188 188 186 175 196 190 206
216 211 217 211 212 213 216 218 224 224 219 216 230 208 212 188 197 192 199 196 186 193 199 195 195 189 194 198 203 204 188 190
209 214 212 209 211 210 212 207 212 211 200 210 206 198 207 205 179 179 184 189 193 197 197 193 199 196 200 197 196 193 198 205
204 214 208 207 206 207 208 204 201 200 196 207 199 200 205 206 194 193 195 199 202 202 206 207 210 213 216 207 207 200 199 198
205 209 205 205 205 206 209 208 202 206 193 199 199 200 202 208 209 207 198 199 205 206 207 213 215 218 225 220 216 214 215 222
204 199 201 203 203 206 208 199 205 201 190 201 204 202 202 205 209 209 209 206 210 213 215 206 213 216 221 225 219 218 222 225